Wind_Speed
8 9 11 9 9 9 8 8 9 10 10 10 12 14 14 14 16 16 17 19 17 15 13 13 14 13 13 13 14 14 15 20 19 18 18 16 15 15 14 10 9 11 14
4 6 7 8 10 10 9 9 9 9 10 12 12 13 16 16 16 20 20 20 21 20 19 17 16 17 17 17 17 17 17 20 22 19 18 17 15 13 12 10 11 15 15
5 6 7 8 9 10 10 11 12 12 11 12 11 11 11 13 17 20 20 22 21 21 22 21 20 19 20 20 20 19 21 22 23 23 21 18 16 14 13 11 14 16 15
4 5 7 7 8 10 11 12 13 13 14 18 17 16 15 15 15 15 20 23 24 25 24 23 23 22 22 22 22 23 22 24 26 26 24 21 20 17 17 13 17 22 20
6 7 8 9 10 9 10 10 11 13 14 18 19 20 19 20 18 18 17 17 18 20 22 25 24 23 24 25 25 25 24 25 27 29 27 25 23 22 21 18 21 25 23
7 7 7 8 8 8 8 10 10 13 13 14 17 21 21 22 22 21 21 20 20 20 21 20 20 22 21 23 25 27 27 26 26 33 28 28 26 26 24 22 22 27 27
7 7 7 8 8 9 9 9 11 13 13 16 16 14 16 21 23 23 19 16 16 20 23 21 18 19 19 22 24 25 28 28 26 29 35 31 28 27 26 25 25 26 26
7 8 8 8 8 9 9 9 10 11 12 9 13 15 11 15 5 6 7 8 9 13 18 20 15 16 17 20 21 24 24 27 28 29 30 29 34 33 30 29 28 28 27
9 9 9 9 10 10 10 10 11 9 12 11 8 8 7 5 16 5 5 6 9 10 8 14 23 27 23 20 22 24 25 27 29 31 32 31 35 39 35 34 33 32 27
9 10 10 9 9 9 10 11 11 11 11 13 13 11 15 19 20 14 7 8 7 12 17 16 17 17 16 24 24 23 23 23 27 30 30 33 33 43 38 38 37 31 29
9 10 10 9 9 9 9 9 10 11 14 17 17 16 15 16 19 22 24 21 22 20 22 25 22 18 18 16 18 22 24 27 28 30 32 30 30 34 31 42 40 34 36
8 7 9 8 9 9 11 12 13 13 14 14 15 19 19 17 19 20 22 26 26 27 24 20 21 23 22 19 19 21 21 22 28 27 29 34 30 31 34 36 35 36 35
8 9 9 11 11 12 14 16 15 14 13 15 17 18 19 23 21 18 20 23 25 27 28 25 21 23 24 25 25 23 24 25 25 27 24 27 28 29 31 32 44 41 44
10 10 10 11 12 14 17 17 16 16 16 16 17 18 18 20 23 21 21 23 24 19 24 24 24 20 19 20 20 22 21 22 23 24 24 26 30 33 31 34 37 40 42
9 10 11 13 15 17 17 18 18 16 15 16 15 13 14 15 18 21 21 19 20 22 21 21 18 18 18 20 22 24 23 24 23 21 22 22 24 23 25 25 20 33 25
10 10 11 12 16 17 17 18 18 15 15 15 14 13 10 12 17 19 16 16 18 21 23 21 24 23 21 19 22 23 28 25 29 26 24 24 23 22 22 22 22 22 12
9 11 12 14 17 16 18 17 16 13 13 13 12 14 13 13 13 12 18 19 22 22 26 27 25 22 23 22 20 19 23 22 19 23 23 23 20 20 22 22 21 23 26
10 9 11 15 16 16 16 14 14 12 12 12 12 11 13 12 13 12 14 16 18 19 23 24 23 22 22 23 22 22 25 25 31 24 20 20 20 19 15 15 15 19 21
10 11 13 15 14 15 17 13 12 13 9 9 10 9 9 9 13 12 15 16 18 19 20 23 25 24 22 21 24 23 23 23 20 21 26 16 19 18 16 17 16 24 20
10 11 14 14 14 13 12 12 12 10 8 8 7 9 10 9 11 15 15 16 18 18 19 18 21 20 21 24 24 25 23 21 20 19 21 25 17 18 16 18 20 19 20
9 11 12 13 12 11 10 11 9 6 5 6 5 7 6 7 9 10 10 12 13 13 16 16 17 20 18 18 13 13 15 19 22 22 23 18 16 16 18 20 21 22 22
10 11 12 13 11 10 10 7 7 5 3 2 1 2 3 4 7 9 9 11 12 11 11 13 15 19 13 15 17 17 17 14 19 19 16 16 15 13 10 11 11 14 14
11 12 13 12 11 10 8 5 4 2 2 2 3 5 5 5 5 6 9 10 8 7 8 10 9 9 10 11 10 9 11 13 14 13 10 13 12 10 10 9 9 9 9
10 12 12 11 10 10 6 3 3 2 2 3 3 6 7 5 7 9 8 6 7 8 11 10 9 7 5 5 4 4 2 3 4 3 3 2 3 3 2 1 1 2 3
9 10 11 11 10 7 4 1 2 1 1 3 3 5 7 9 9 10 12 12 13 16 13 12 12 11 11 13 15 12 14 10 10 8 7 6 4 4 4 3 2 2 3
9 8 8 8 9 7 6 2 3 5 2 3 5 6 10 10 12 14 14 14 15 17 14 13 13 13 13 12 11 10 9 6 4 2 2 1 3 3 3 5 6 6 6
Wind_Direction
210 213 219 232 242 261 266 265 265 266 267 260 259 259 258 257 245 246 236 250 257 262 267 267 260 252 245 241 232 232 230 226 234 242 247 252 258 265 264 248 222 189 184
214 228 239 243 236 250 264 275 275 270 270 273 264 259 256 253 252 246 253 251 256 256 262 266 263 256 250 247 239 236 236 236 239 244 248 251 258 267 263 230 199 205 209
248 247 247 251 261 265 265 263 262 268 271 270 270 268 267 262 255 249 251 261 260 256 257 259 261 262 253 250 251 247 244 240 242 245 250 255 260 275 266 236 204 217 213
270 277 275 272 270 272 274 276 275 272 274 272 272 270 269 267 266 261 250 255 264 262 259 259 261 259 256 252 249 251 250 246 243 246 250 253 262 271 264 244 208 217 218
302 297 293 291 297 296 288 278 275 280 280 269 269 268 270 274 272 266 261 263 270 271 266 258 258 260 256 252 247 250 254 252 247 242 248 252 258 265 262 254 224 220 226
312 303 298 292 290 288 283 284 292 297 297 293 280 269 267 269 271 270 274 277 274 273 275 277 266 258 257 251 252 250 251 254 250 241 246 248 259 262 257 251 235 230 235
326 313 307 296 290 286 281 283 287 292 304 313 314 293 277 271 274 276 275 266 274 273 266 269 270 272 262 256 255 256 251 250 252 242 260 236 257 261 257 250 239 230 230
332 324 313 304 294 288 284 279 278 284 293 309 318 321 324 318 304 303 264 263 284 292 270 262 264 271 271 263 260 254 254 250 250 248 253 257 251 258 251 250 227 225 224
344 337 325 313 306 296 292 289 284 275 292 283 285 296 310 297 318 287 314 279 279 297 314 263 255 266 275 272 265 260 258 257 256 254 253 255 248 252 255 250 229 225 225
343 345 342 339 333 319 302 293 285 275 269 284 291 275 272 277 287 299 294 266 267 288 292 293 296 297 291 266 266 270 267 264 259 257 257 254 254 256 235 228 225 226 227
331 335 340 345 347 340 335 328 315 293 274 267 264 269 269 269 270 278 290 289 284 283 280 282 288 283 287 286 291 284 270 265 263 255 253 255 255 256 253 235 233 227 220
308 307 321 341 341 331 322 317 308 299 293 288 282 263 262 273 275 282 284 285 287 290 292 286 277 281 287 289 290 288 286 278 272 266 260 252 253 253 255 234 231 222 223
315 324 334 335 332 329 322 315 312 310 296 283 279 277 266 259 267 283 282 282 292 293 291 287 286 284 283 286 289 289 293 272 276 267 262 255 254 253 248 258 234 225 231
335 335 325 325 320 318 315 309 303 300 302 304 296 289 269 263 259 269 279 287 290 291 291 292 290 294 288 282 283 283 294 281 271 266 259 258 256 254 252 250 256 227 219
316 312 318 315 317 316 311 306 297 294 293 304 303 305 264 266 265 267 272 272 276 282 287 294 299 305 296 289 285 283 289 285 276 266 264 261 260 260 248 232 246 220 218
308 306 307 309 316 313 306 306 302 290 290 296 301 297 287 288 279 261 274 272 268 277 285 290 291 298 301 298 287 285 294 276 272 269 270 264 261 258 259 263 232 225 236
309 306 307 311 313 312 313 313 314 295 292 292 297 290 282 282 289 280 267 274 273 280 284 285 290 293 295 293 297 278 280 292 290 275 272 260 253 248 244 241 239 246 251
317 315 314 316 318 324 320 318 310 303 293 298 305 302 296 274 280 283 278 279 275 273 277 287 292 290 290 291 288 290 284 283 280 291 284 263 256 248 251 260 252 243 240
325 325 326 326 327 323 317 320 312 317 305 302 304 306 308 287 283 276 280 274 276 283 277 284 286 286 289 283 285 285 288 274 261 270 273 256 244 248 247 247 255 233 229
324 331 332 327 321 318 311 309 314 313 299 288 286 292 297 287 285 284 283 281 279 278 277 280 284 280 281 288 283 277 280 261 248 265 255 257 233 224 232 235 237 228 223
330 333 331 332 323 324 315 318 328 321 317 303 295 285 279 288 302 308 307 296 292 293 290 283 286 279 287 283 306 288 278 263 248 235 234 241 243 238 229 228 229 234 236
327 332 329 328 324 314 315 322 329 323 309 293 334 353 344 339 328 335 328 303 304 305 295 280 285 285 282 288 287 271 279 268 252 239 237 246 239 238 239 240 237 241 240
334 336 335 325 318 322 318 313 321 357 3 62 46 33 17 34 13 7 10 11 2 349 321 300 289 277 280 287 289 269 270 253 249 249 261 250 247 248 243 239 240 239 240
334 337 334 335 326 324 303 299 257 263 78 62 31 41 41 43 52 44 35 19 42 54 54 51 55 53 35 22 356 332 324 273 235 231 221 232 189 174 141 65 311 247 226
320 327 329 331 328 334 318 295 231 166 98 73 69 60 63 74 79 65 60 63 76 75 71 69 72 75 77 75 76 81 85 82 91 89 84 88 106 128 148 167 198 238 244
304 316 339 337 343 336 313 235 171 114 107 101 105 92 89 79 80 76 73 75 76 72 66 62 64 62 60 62 72 71 69 72 81 100 147 175 186 208 242 252 253 253 233
Height
1537 1537 1539 1538 1538 1538 1537 1536 1536 1536 1537 1538 1538 1538 1538 1539 1540 1541 1541 1542 1542 1542 1542 1543 1543 1544 1544 1545 1545 1546 1548 1549 1550 1551 1552 1552 1552 1551 1550 1551 1551 1553 1553
1534 1536 1536 1536 1536 1535 1534 1534 1535 1534 1534 1535 1535 1535 1535 1536 1537 1537 1538 1538 1539 1540 1540 1540 1540 1541 1542 1543 1543 1543 1545 1546 1547 1548 1549 1550 1550 1549 1549 1549 1549 1551 1552
1534 1534 1534 1533 1532 1532 1532 1532 1533 1531 1531 1531 1532 1531 1532 1532 1532 1533 1534 1534 1535 1536 1536 1536 1537 1538 1539 1540 1540 1540 1541 1542 1543 1544 1545 1546 1547 1547 1547 1547 1548 1548 1549
1531 1530 1530 1530 1530 1530 1529 1529 1528 1527 1527 1530 1528 1528 1528 1528 1528 1528 1530 1530 1530 1530 1531 1531 1532 1533 1534 1535 1537 1537 1537 1538 1539 1540 1541 1542 1543 1543 1544 1545 1546 1546 1546
1528 1528 1527 1525 1524 1525 1525 1527 1525 1524 1525 1527 1524 1524 1524 1523 1524 1525 1525 1526 1526 1525 1526 1526 1527 1528 1528 1530 1532 1533 1533 1534 1534 1535 1536 1537 1538 1539 1540 1541 1542 1543 1543
1527 1526 1525 1525 1524 1524 1524 1524 1522 1521 1523 1521 1520 1520 1519 1519 1520 1520 1520 1521 1521 1521 1521 1521 1521 1522 1523 1524 1526 1527 1528 1529 1530 1529 1530 1532 1533 1534 1535 1536 1537 1537 1538
1525 1524 1524 1523 1522 1521 1521 1521 1520 1520 1518 1518 1517 1514 1514 1514 1514 1514 1515 1516 1516 1516 1516 1516 1516 1516 1517 1518 1520 1521 1522 1524 1525 1526 1525 1523 1527 1529 1530 1531 1532 1532 1534
1522 1522 1521 1520 1520 1519 1518 1518 1517 1517 1517 1517 1516 1514 1511 1511 1510 1510 1511 1512 1513 1511 1511 1512 1513 1513 1513 1513 1514 1515 1516 1518 1519 1521 1521 1521 1522 1523 1525 1526 1527 1528 1530
1520 1518 1518 1517 1516 1515 1514 1514 1514 1514 1513 1515 1515 1516 1514 1511 1510 1508 1508 1509 1509 1509 1508 1508 1511 1511 1509 1508 1508 1509 1511 1512 1513 1514 1515 1516 1516 1516 1516 1518 1521 1523 1524
1517 1516 1516 1514 1513 1512 1511 1511 1511 1511 1510 1510 1512 1513 1512 1512 1511 1505 1506 1506 1505 1506 1506 1507 1506 1506 1505 1505 1504 1505 1505 1505 1506 1507 1508 1509 1509 1505 1506 1509 1511 1514 1519
1515 1515 1514 1513 1511 1511 1510 1508 1507 1507 1506 1506 1507 1506 1507 1507 1507 1505 1501 1500 1500 1501 1502 1502 1502 1501 1502 1501 1501 1500 1500 1499 1499 1500 1501 1501 1502 1502 1503 1504 1503 1505 1509
1514 1512 1511 1511 1510 1509 1507 1506 1505 1503 1502 1501 1501 1501 1502 1503 1502 1501 1499 1496 1496 1495 1496 1497 1497 1497 1496 1496 1496 1496 1495 1494 1492 1492 1492 1493 1495 1495 1496 1490 1491 1500 1502
1510 1509 1508 1508 1506 1505 1504 1503 1501 1498 1497 1497 1496 1496 1496 1497 1498 1497 1495 1494 1492 1491 1490 1491 1492 1492 1491 1491 1491 1490 1489 1488 1487 1486 1486 1487 1488 1487 1488 1489 1486 1489 1488
1507 1506 1506 1505 1504 1502 1501 1499 1497 1495 1494 1493 1491 1490 1490 1491 1493 1492 1491 1491 1489 1488 1486 1486 1486 1486 1485 1485 1485 1484 1483 1482 1482 1481 1481 1480 1480 1480 1481 1482 1483 1483 1489
1504 1503 1503 1502 1501 1500 1497 1495 1493 1492 1491 1490 1487 1486 1486 1486 1487 1487 1487 1486 1486 1484 1482 1482 1482 1482 1481 1480 1480 1480 1479 1478 1478 1477 1477 1476 1475 1475 1475 1476 1476 1477 1479
1501 1501 1500 1499 1498 1496 1493 1491 1488 1487 1487 1486 1483 1483 1483 1483 1482 1482 1481 1481 1481 1480 1479 1478 1478 1478 1477 1476 1475 1474 1473 1473 1472 1472 1471 1471 1471 1471 1472 1472 1473 1475 1476
1499 1498 1497 1496 1494 1491 1489 1486 1484 1482 1482 1481 1480 1479 1479 1479 1478 1477 1477 1477 1476 1475 1473 1473 1472 1473 1472 1471 1470 1469 1468 1467 1467 1466 1467 1467 1467 1468 1469 1470 1470 1472 1474
1497 1495 1494 1492 1490 1487 1485 1482 1481 1479 1478 1477 1476 1475 1474 1474 1474 1473 1473 1472 1471 1471 1470 1468 1467 1467 1467 1466 1466 1464 1463 1462 1462 1464 1463 1463 1463 1463 1465 1465 1467 1468 1470
1495 1493 1491 1489 1487 1485 1482 1480 1479 1476 1474 1474 1473 1471 1471 1470 1470 1469 1468 1467 1467 1465 1464 1463 1462 1462 1461 1461 1460 1459 1459 1458 1457 1457 1458 1458 1458 1459 1461 1462 1464 1464 1467
1493 1491 1488 1486 1484 1481 1479 1477 1475 1473 1472 1471 1470 1468 1468 1467 1466 1465 1464 1463 1461 1460 1459 1459 1457 1457 1457 1456 1455 1454 1455 1454 1454 1453 1452 1454 1454 1455 1456 1458 1461 1461 1462
1491 1488 1486 1484 1481 1479 1477 1475 1472 1471 1470 1469 1467 1466 1464 1463 1463 1462 1461 1459 1457 1456 1455 1454 1454 1453 1451 1451 1450 1450 1450 1450 1449 1450 1448 1451 1451 1452 1451 1454 1456 1458 1459
1488 1486 1484 1482 1479 1477 1475 1473 1471 1470 1468 1467 1465 1464 1463 1462 1462 1461 1458 1456 1454 1453 1452 1451 1451 1450 1448 1448 1447 1447 1447 1447 1447 1447 1448 1448 1449 1450 1450 1450 1452 1453 1455
1486 1484 1482 1480 1477 1474 1473 1471 1470 1469 1467 1465 1464 1463 1462 1461 1462 1460 1456 1454 1452 1451 1449 1448 1447 1447 1446 1446 1445 1444 1444 1444 1445 1446 1446 1446 1448 1448 1448 1449 1450 1451 1452
1484 1482 1480 1478 1475 1472 1471 1469 1468 1468 1467 1465 1464 1463 1462 1462 1461 1459 1455 1454 1452 1451 1450 1449 1447 1446 1446 1445 1444 1444 1444 1445 1445 1446 1446 1447 1447 1448 1448 1449 1450 1452 1452
1482 1481 1479 1476 1474 1471 1470 1468 1468 1467 1466 1465 1464 1463 1463 1463 1462 1458 1456 1455 1454 1454 1453 1452 1451 1450 1449 1448 1446 1447 1446 1448 1448 1449 1449 1450 1450 1450 1450 1451 1452 1452 1453
1480 1479 1477 1475 1473 1470 1469 1467 1466 1465 1467 1466 1465 1465 1465 1464 1463 1460 1459 1459 1458 1457 1457 1456 1455 1454 1453 1452 1451 1450 1450 1451 1451 1450 1451 1451 1450 1451 1451 1451 1451 1452 1452